sat.trackr.live / text

‹ back to catalog

STARLINK-37221

NORAD 68668 · 2026-077G

PAYLOAD ACTIVE UNKNOWN

§ Identity

Operator
Country
US
Launch date
2026-04-11
Launch site
AFWTR
Launch vehicle
Mass (kg)
RCS (m²)

Purposes: comms

External: N2YO · Heavens-Above · Gunter

§ Orbital elements

Epoch: 2026-05-25T03:01:36.242688Z

Period
93.91 min
Inclination
97.2866°
Eccentricity
0.0002479
Mean motion
15.33462591 rev/d
Perigee alt
463.8 km
Apogee alt
467.2 km
Semi-major
6,843.6 km
B*
5.7035e-4
RAAN
16.7270°
Arg perigee
97.5440°
Mean anomaly
262.6084°
Rev number
687

§ Raw data

STARLINK-372211 68668U 26077G   26145.12611392  .00018394  00000+0  57035-3 0  99962 68668  97.2866  16.7270 0002479  97.5440 262.6084 15.33462591  6876

JSON: /api/v1/satellites/68668 · /tle

For live sub-satellite position, see the globe view (requires WebGL).

§ Visibility from observer

Set your observer location to see the next 7 days of passes ≥ 10°. The values pass through the URL so the page stays shareable.

No JS? Fill the form by hand. The geolocation button needs JavaScript.